www.pogodaiklimat.ru

ПОГОДА в Меркьюри, NV

  • Прогноз погоды в Меркьюри
  • Монитор погоды в Меркьюри
  • Климат в Меркьюри

АРХИВ ПОГОДЫ в Меркьюри

Время (UTC), дата Ветер
(напр.,м/с)
 
Видим.   Явления Облачность Т
(С)
Тd
(С)
f
(%)
Тe
(С)
Тes
(С)
Комфортность

P
(гПа)

Po
(гПа)
Тmin
(С)
Tmax
(С)
R
(мм)
SD
(см)
20:56 22.03 ЮЗ  16 км    ясно  +16.1  +2.2  39  +15  +19    1016.6  904.5         
21:56 22.03 ЮЗ  6
{9} 
16 км    ясно  +16.1  +1.7  38  +15  +17    1016.6  904.5         
22:56 22.03 З  16 км    ясно  +15.6  0.0  34  +14  +16    1016.2  904.2  +11.1  +16.1     
23:56 22.03 З  16 км    ясно  +14.4  +1.7  42  +13  +14    1016.4  904.2         
00:56 23.03 З  16 км    ясно  +12.8  +1.7  47  +12  +12    1016.8  904.5         
01:56 23.03   16 км    ясно  +11.7  +2.8  54  +11  +11    1017.0  904.5         
02:56 23.03 С  16 км    ясно  +11.1  +3.9  61  +9  +9    1016.8  904.5         
03:56 23.03 С  16 км    ясно  +11.1  +3.3  59  +9  +9    1017.1  905.1         
04:56 23.03 С  16 км    ясно  +9.4  +3.3  66  +8  +8    1017.1  905.1  +9.4  +16.1     
05:56 23.03 СВ  16 км    ясно  +8.3  +3.3  71  +7  +7    1016.9  904.8         
06:56 23.03 СВ  16 км    ясно  +8.3  +3.3  71  +6  +6    1016.5  904.8         
07:56 23.03 В  16 км    ясно  +8.9  +3.3  68  +8  +8    1016.6  904.8         
08:56 23.03   16 км    2/0 3300 м
[средняя] 
+9.4  +3.3  66  +9  +9    1015.8  904.2         
09:56 23.03   16 км    ясно  +7.8  +4.4  79  +7  +7    1015.6  903.9         
10:56 23.03 В  16 км    ясно  +7.8  +2.2  68  +6  +6    1015.5  903.9  +6.7  +9.4     
11:56 23.03   16 км    ясно  +5.6  +1.7  76  +5  +5    1015.6  903.6         
12:56 23.03 В  16 км    ясно  +5.6  +2.8  82  +2  +2    1016.1  903.9         
13:56 23.03 В  16 км    ясно  +7.2  +3.3  76  +6  +6    1016.1  903.9         
14:56 23.03 З  16 км    ясно  +11.1  +1.1  50  +10  +11    1015.6  903.9         
15:56 23.03 ЮЗ  16 км    ясно  +12.8  +1.7  47  +12  +16    1015.3  903.9         
16:56 23.03   16 км    ясно  +14.4  0.0  37  +14  +26  опасность
простуды 
1015.2  903.6  +5.0  +14.4     
17:56 23.03     16 км    ясно  +16.1  0.0  33  +16  +32  опасность
простуды 
1014.3  903.0         
18:56 23.03 Ю  11
{15} 
16 км    ясно  +18.3  -0.6  28  +17  +17    1013.3  902.1         
19:56 23.03 ЮЗ  9
{13} 
16 км    ясно  +18.3  -0.6  28  +17  +18    1012.7  901.8         
20:56 23.03 Ю  9
{14} 
16 км    ясно  +17.8  -1.1  28  +17  +17    1012.7  901.8         
21:56 23.03 Ю  16 км    5/0 2100 м
[средняя] 
+18.3  -0.6  28  +18  +19    1012.0  901.2         
22:56 23.03 Ю  7
{11} 
16 км    ясно  +18.3  -1.1  27  +18  +19    1011.2  900.3  +14.4  +18.9     
23:56 23.03 Ю  9
{13} 
16 км    ясно  +17.2  -1.7  28  +16  +16    1011.1  900.0         
00:56 24.03 Ю  6
{10} 
16 км    ясно  +16.1  0.0  33  +15  +15    1011.3  900.0         
01:56 24.03 ЮЗ  16 км    ясно  +15.0  +0.6  37  +13  +13    1011.7  900.6         
02:56 24.03 ЮЗ  9
{13} 
16 км    ясно  +14.4  +1.7  42  +12  +12    1011.7  900.6         
03:56 24.03 ЮЗ  16 км    ясно  +13.3  +1.1  43  +11  +11    1012.3  901.2         
04:56 24.03 ЮЗ  16 км    ясно  +12.2  +1.7  49  +9  +9    1013.0  901.8  +12.2  +18.3     
05:56 24.03 З  16 км    ясно  +11.7  0.0  44  +9  +9    1014.0  903.0         
06:56 24.03 СЗ  16 км    ясно  +10.0  0.0  50  +7  +7    1015.1  903.9         
07:56 24.03 С  16 км    ясно  +8.9  +1.7  61  +5  +5    1015.6  904.5         
08:56 24.03   16 км    ясно  +8.3  +1.1  60  +8  +8    1016.4  904.8         
09:56 24.03 С  16 км    ясно  +6.1  +0.6  68  +3  +3    1016.9  905.1         
10:56 24.03 С  16 км    ясно  +6.1  +0.6  68  +3  +3    1017.4  905.7  +5.6  +12.2     
11:56 24.03 В  16 км    ясно  +5.0  +0.6  73  +2  +2    1018.1  906.0         
12:56 24.03 нст  16 км    ясно  +7.8  +1.1  63  +5  +5    1018.8  906.9         
13:56 24.03 СВ  16 км    ясно  +9.4  0.0  52  +7  +7    1019.6  907.5         
14:56 24.03 СВ  16 км    ясно  +11.1  -3.9  35  +9  +9    1020.0  907.8         
15:56 24.03 С  16 км    ясно  +13.3  -5.6  26  +12  +15    1020.3  908.4         
16:56 24.03 С  16 км    ясно  +14.4  -7.8  21  +14  +21    1020.6  908.4  +3.9  +15.0     
17:56 24.03 З  16 км    ясно  +15.0  -9.4  18  +15  +26  опасность
простуды 
1020.8  908.7         
18:56 24.03 ЮЗ  16 км    ясно  +16.1  -8.3  18  +16  +26    1020.8  908.7         
19:56 24.03 ЮЗ  16 км    ясно  +16.7  -5.6  21  +17  +29  опасность
простуды 
1020.3  908.1         

 

Местоположение метеостанции Desert Rock Airport: широта 36.6207 долгота -116.0287 высота над уровнем моря 987 м.

В архиве по умолчанию представлена погода в Меркьюри за последние 1-2 суток. Обновление информации о фактической погоде в базе происходит ежечасно! Архивные данные за месяц целиком и за предыдущие месяцы Вы можете получить, выбрав интересующий диапазон дат из раскрывающегося списка и нажав кнопку "Ввод!".

Внимание! Архив погоды МЕТАР в базе сайта хранится не более 60 дней. Нет смысла пытаться выбрать более раннюю дату.

Внимание! Время в таблицах - всемирное. Для получения местного времени необходимо прибавить поправку, которая в Меркьюри равна -8 ч.

Ветер - указаны скорость ветра в м/с и направление, откуда дует ветер: С - северный, СВ - северо-восточный, В - восточный, ЮВ - юго-восточный, Ю - южный, ЮЗ - юго-западный, З - западный, СЗ - северо-западный.
Видимость - горизонтальная дальность видимости в метрах или километрах. При видимости от 1 до 10 км при отсутствии осадков обычно наблюдается дымка, при ухудшении видимости до 1 км и менее - туман. В сухую погоду видимость может ухудшаться дымом, пылью или мглою.
Атмосферные явления - указаны явления, наблюдавшиеся в указанный момент времени.
Облачность - указаны через наклонную черту верхняя и нижняя облачность в баллах и высота нижней границы облаков в метрах. Внимание: облачность, как и прочие метеорологические величины в США измеряются автоматическими метеостанциями. Указанные значения в баллах носят условный характер и показывают процент времени, в течение которого, в среднем, лазерный луч высотомера отражался от облаков обратно.
T - Температура воздуха - температура, измеренная на высоте 2 м над землей.
Td - Температура точки росы - температура, при понижении до которой содержащийся в воздухе водяной пар достигнет насыщения.
f - Относительная влажность воздуха - влажноcть воздуха, измеренная на высоте 2 м над землей.
Te - Эффективная температура - температура, которую ощущает одетый по сезону человек в тени. Характеристика душности погоды. При расчете учитывается влияние влажности воздуха и скорости ветра на теплоощущения человека.
Tes - Эффективная температура на солнце - температура, которую ощущает человек, с поправкой на солнечный нагрев. Характеристика знойности погоды. Зависит от высоты солнца над горизонтом, облачности и скорости ветра. Ночью, в пасмурную погоду, а также при ветре 12 м/с и более поправка равна нулю.
P - Атмосферное давление - приведенное к уровню моря атмосферное давление.
Po - Атмосферное давление - измеренное на уровне метеостанции атмосферное давление.
Tmin - Минимальная температура - минимум температуры воздуха на высоте 2 м над землей.
Tmax - Максимальная температура - максимум температуры воздуха на высоте 2 м над землей.
R - Количество осадков - Количество выпавших осадков за 3 или 6 часов, мм.
SD - Снежный покров - Высота снежного покрова, см.